{"data":{"norad_id":59921,"intl_designator":"2024-105E","name":"2024-105E","alt_names":[],"object_type":"PAYLOAD","status":"ACTIVE","operator":null,"country":"PRC","launch_date":"2024-05-30","launch_site_code":"JSC","launch_vehicle":null,"mission":null,"orbit_class":"UNKNOWN","rcs_meters":null,"size_class":null,"mass_kg":null,"dimensions":null,"purposes":[],"wikipedia_slug":null,"has_3d_model":false,"image_url":null,"decayed_at":null,"tle_current":{"epoch":"2026-05-25T08:12:39.334752Z","epoch_age_seconds":46304,"freshness":"FRESH","line1":"1 59921U 24105E   26145.34212193  .00000004  00000+0  37423-5 0  9998","line2":"2 59921  97.5805 162.0834 0014287 267.9770  91.9827 15.16430288109684","mean_motion":15.16430288,"eccentricity":0.0014287,"inclination_deg":97.5805,"raan_deg":162.0834,"arg_perigee_deg":267.977,"mean_anomaly_deg":91.9827,"bstar":3.7423e-6,"rev_number":10968,"period_min":94.95985482453,"perigee_km":506.78917384729,"apogee_km":526.4903089081,"semimajor_km":6894.7767413777,"source":"CELESTRAK","updated_at":"2026-05-25T13:38:01.748890Z"}}}